Welcome to the New NWS' Forecast!
Most changes are behind the scenes, but click here for differences you might notice.
Latest weather observations around

Chicago, Chicago-O'Hare International Airport (KORD)

Using English Units (Switch to International System of Units)
Date/ Time (CST) Wind (mph) Vis. (mi) Weather Sky Cond. Temp (°F) Rel. Humidity Wind Chill (°F) Heat Index (°F) Pressure Precip. (in)
Air Dwpt 6 hour Altimeter (inHg) Sea level (inHg) 1 hr 3 hr 6 hr
Max Min
Nov 19 12:51 SW 11 7 Cloudy FEW013 BKN085 OVC140 30 24     78% 21   30.02 30.05      
Nov 19 12:10 WSW 11 6 Haze SCT012 BKN090 OVC140 30 24     78% 21   30.03        
Nov 19 11:51 WSW 9 6 Haze BKN012 BKN090 OVC160 29 24     82% 20   30.04 30.06      
Nov 19 11:04 W 11 6 Haze BKN011 BKN200 29 24     82% 19   30.06        
Nov 19 10:51 WSW 11 6 Haze BKN009 BKN200 29 24     82% 19   30.06 30.09      
Nov 19 09:51 WSW 10 5 Fog/Mist BKN007 OVC200 27 24     89% 17   30.07 30.09      
Nov 19 08:51 SW 9 5 Fog/Mist BKN007 BKN200 OVC250 26 23     88% 17   30.07 30.1      
Nov 19 08:23 SSW 9 5 Fog/Mist BKN007 OVC200 25 22     88% 16   30.07        
Nov 19 07:51 SSW 9 6 Fog/Mist SCT007 BKN200 BKN250 25 21     85% 16   30.08 30.11      
Nov 19 07:31 SW 8 9 Mostly Cloudy FEW007 BKN200 BKN250 25 21     85% 16   30.09        
Nov 19 06:51 SW 8 10 Mostly Cloudy FEW170 BKN200 BKN250 25 20     81% 16   30.09 30.11      
Nov 19 05:51 WSW 7 10 Mostly Cloudy BKN170 25 19     78% 17   30.1 30.12      
Nov 19 04:51 WSW 7 10 Mostly Cloudy BKN170 24 19     81% 16   30.1 30.13      
Nov 19 03:51 W 5 10 Mostly Cloudy BKN200 24 19     81% 18   30.11 30.13      
Nov 19 02:51 SW 5 10 Partly Cloudy SCT200 23 19     85% 17   30.11 30.13      
Nov 19 01:51 SSW 3 10 Mostly Clear FEW200 23 19     85% 19   30.12 30.14      
Nov 19 00:51 SW 3 10 Mostly Clear FEW200 24 20     84% 20   30.14 30.16      
Nov 18 23:51 SW 3 10 Mostly Clear FEW200 25 21     85% 21   30.14 30.16      
Nov 18 22:51 SW 6 10 Clear CLR 26 21     81% 19   30.14 30.16      
Nov 18 21:51 SW 5 10 Clear CLR 27 21     78% 21   30.16 30.18      
Nov 18 20:51 WSW 6 10 Clear CLR 27 22     81% 20   30.17 30.2      
Nov 18 19:51 SW 5 10 Clear CLR 29 23     78% 24   30.18 30.2      
Nov 18 18:51 W 6 10 Clear CLR 30 23     75% 24   30.19 30.21      
Nov 18 17:51 W 7 10 Clear CLR 32 23     69% 26   30.19 30.21     0
Nov 18 16:51 WSW 7 10 Mostly Clear FEW025 34 25     69% 28   30.18 30.2      
Nov 18 15:51 W 9 10 Mostly Clear FEW023 36 25     64% 29   30.18 30.2      
Nov 18 14:51 W 7 10 Mostly Clear FEW023 37 26     64% 32   30.18 30.19   0  
Nov 18 13:51 WNW 7 10 Mostly Cloudy SCT020 SCT026 BKN033 36 26     67% 30   30.19 30.21 0    
Nov 18 12:51 W 3 10 Mostly Cloudy FEW029 BKN037 35 26     69% 32   30.21 30.23      
Nov 18 12:34 WNW 6 10 Mostly Cloudy FEW029 BKN039 35 26     69% 30   30.22        
Nov 18 12:19 WNW 6 10 Mostly Cloudy SCT025 BKN029 BKN037 34 25     69% 29   30.23        
Nov 18 11:51 NNW 3 8 Cloudy BKN021 OVC027 33 25     72% 30   30.24 30.26 0   0
Nov 18 11:44 NW 7 6 Light Snow FEW015 BKN020 OVC030 33 26     75% 27   30.25   0    
Nov 18 11:38 W 5 5 Light Snow FEW015 SCT020 OVC027 33 25     72% 29   30.25   0    
Nov 18 10:51 N 6 10 Cloudy BKN019 OVC038 33 23     66% 28   30.27 30.28      
Nov 18 09:51 NNW 7 10 Cloudy OVC030 32 22     66% 26   30.27 30.29      
Nov 18 08:51 NNW 6 10 Cloudy OVC037 31 21     66% 25   30.28 30.3      
Nov 18 07:51 N 9 10 Cloudy OVC034 30 21     69% 22   30.28 30.3      
Nov 18 06:51 NNW 7 10 Cloudy FEW021 OVC036 31 23     72% 24   30.28 30.29      
Nov 18 05:51 N 8 10 Cloudy BKN021 OVC038 31 24     75% 23   30.27 30.29     0
Nov 18 04:51 NNW 5 10 Cloudy BKN018 OVC038 31 24     75% 26   30.27 30.28      
Nov 18 03:51 NNW 6 10 Cloudy BKN023 OVC060 31 24     75% 25   30.26 30.28 0    
Nov 18 03:05 NNW 6 10 Cloudy BKN023 BKN034 OVC060 31 25     78% 25   30.27        
Nov 18 02:51 N 5 10 Cloudy FEW023 BKN050 OVC070 31 25     78% 26   30.27 30.29      
Nov 18 01:58 NNW 7 10 Cloudy BKN023 OVC041 31 24     75% 24   30.28        
Nov 18 01:51 NNW 7 10 Cloudy BKN025 OVC041 31 25     78% 24   30.28 30.31      
Nov 18 01:14 N 7 10 Cloudy OVC025 32 25     75% 26   30.29        
Nov 18 00:51 N 8 10 Cloudy OVC024 32 25     75% 25   30.29 30.31      
Nov 17 23:51 N 8 10 Cloudy OVC023 32 26     78% 25   30.3 30.32      
Nov 17 23:07 N 8 10 Cloudy OVC023 32 26     78% 25   30.3        
Nov 17 22:51 N 8 10 Cloudy OVC025 32 26     78% 25   30.31 30.33      
Nov 17 21:51 NNW 7 10 Cloudy OVC025 33 27     78% 27   30.31 30.33      
Nov 17 21:31 N 8 10 Cloudy OVC025 33 27     78% 26   30.31        
Nov 17 20:51 NNE 11 10 Cloudy OVC024 35 27     72% 27   30.31 30.33      
Nov 17 19:51 NNE 11 10 Cloudy OVC023 35 28     75% 27   30.3 30.32      
Nov 17 18:51 NNE 13 10 Cloudy OVC022 35 28     75% 26   30.31 30.33      
Nov 17 17:51 NNE 14 10 Cloudy OVC021 35 29     78% 26   30.3 30.32     0
Nov 17 16:51 N 9 10 Cloudy OVC022 34 31     88% 27   30.3 30.32      
Nov 17 15:51 N 10 10 Cloudy BKN024 OVC035 34 30     85% 26   30.29 30.31 0    
Nov 17 15:06 N 10 10 Cloudy FEW012 BKN020 OVC045 34 30     85% 26   30.29   0    
Nov 17 14:51 N 11 10 Light Snow SCT009 BKN026 OVC040 34 30     85% 26   30.29 30.31 0 0  
Nov 17 14:38 N 11 6 Light Snow and Fog/Mist SCT009 BKN029 OVC045 34 31     88% 26   30.28   0    
Nov 17 14:28 N 10 4 Light Snow and Fog/Mist SCT009 BKN029 OVC035 34 31     88% 26   30.28   0    
Nov 17 14:24 N 10 2.5 Light Snow and Fog/Mist BKN009 OVC027 34 31     88% 26   30.28   0    
Nov 17 14:15 N 11 1.75 Light Snow and Fog/Mist BKN009 OVC023 33 31     92% 24   30.28   0    
Nov 17 13:51 N 10 1 Light Snow and Fog/Mist BKN009 BKN014 OVC023 33 31     92% 25   30.28 30.3 0    
Nov 17 13:49 N 13 1 Light Snow and Fog/Mist BKN009 BKN014 OVC023 34 30     86% 25   30.28   0    
Nov 17 13:13 N 10 1.5 Light Snow and Fog/Mist OVC009 33 31     92% 25   30.29   0    
Nov 17 12:51 N 10 2 Light Snow and Fog/Mist OVC007 33 31     92% 25   30.29 30.31 0    
Nov 17 12:40 N 10 1.5 Light Snow and Fog/Mist OVC007 33 31     92% 25   30.29   0    
Nov 17 12:16 N 9 1 Light Snow and Fog/Mist OVC007 33 31     92% 25   30.29   0    
Nov 17 11:51 N 8 0.75 Light Snow and Fog/Mist SCT005 OVC014 33 31     92% 26   30.3 30.32 0   0
Nov 17 11:23 N 8 0.75 Light Snow and Fog/Mist SCT005 OVC014 32 31     96% 25   30.3   0    
Nov 17 11:16 N 9 1 Light Snow and Fog/Mist SCT005 OVC014 32 31     96% 24   30.3   0    
Nov 17 11:03 N 9 0.75 Light Snow and Fog/Mist BKN005 OVC010 33 31     92% 25   30.31   0    
Nov 17 10:51 N 10 1.25 Light Snow and Fog/Mist OVC005 33 31     92% 25   30.31 30.33 0    
Nov 17 10:04 N 6 1 Light Snow and Fog/Mist BKN005 OVC014 33 31     92% 28   30.29   0    
Nov 17 09:51 N 7 1 Light Snow and Fog/Mist SCT005 OVC014 32 31     96% 26   30.3 30.32 0    
Nov 17 08:51 NNW 7 1 Light Snow and Fog/Mist SCT006 OVC013 33 31     92% 27   30.28 30.3 0 0  
Nov 17 08:46 N 7 1 Light Snow and Fog/Mist SCT006 OVC013 34 30     86% 28   30.27   0    
Nov 17 08:15 N 10 1 Light Snow and Fog/Mist OVC009 32 31     96% 24   30.27   0    
Nov 17 07:51 N 7 1.5 Light Snow and Fog/Mist OVC009 32 31     96% 26   30.26 30.28 0    
Nov 17 07:47 N 7 2 Light Snow and Fog/Mist OVC009 32 30     93% 26   30.26   0    
Nov 17 07:22 N 5 2 Light Snow and Fog/Mist OVC010 32 31     96% 27   30.24   0    
Nov 17 07:05 NNW 5 1.5 Light Snow and Fog/Mist BKN010 OVC015 32 31     96% 27   30.24   0    
Nov 17 07:02 NNW 5 2 Light Snow and Fog/Mist SCT008 OVC015 32 31     96% 27   30.24   0    
Nov 17 06:51 N 3 2 Light Snow and Fog/Mist BKN017 OVC024 33 31     92% 30   30.23 30.25 0    
Nov 17 06:25 N 5 2 Light Snow and Fog/Mist OVC024 33 31     92% 29   30.21   0    
Nov 17 05:51 N 3 5 Fog/Mist SCT018 BKN025 OVC045 33 31     92% 30   30.21 30.23 0   0
Nov 17 05:28 Calm 4 Fog/Mist FEW006 BKN028 OVC095 33 31     92%     30.2   0    
Nov 17 04:51 Calm 3 Light Snow and Fog/Mist SCT013 BKN023 OVC028 33 31     92%     30.2 30.22 0    
Nov 17 04:40 Calm 3 Light Snow and Fog/Mist FEW014 BKN024 OVC035 33 30     88%     30.2   0    
Nov 17 03:51 Calm 7 Light Snow FEW016 OVC042 33 30     88%     30.18 30.2 0    
Nov 17 02:51 Calm 10 Cloudy FEW015 OVC070 33 29     85%     30.19 30.2 0 0  
Nov 17 01:51 NNE 3 8 Light Snow FEW016 OVC055 33 29     85% 30   30.17 30.19 0    
Nov 17 00:51 WNW 3 9 Cloudy FEW016 SCT030 OVC070 33 29     85% 30   30.17 30.19 0    
Nov 16 23:51 NW 6 10 Light Snow SCT016 OVC045 34 28     79% 29   30.17 30.18 0   0
Nov 16 23:42 WNW 6 10 Light Snow SCT016 OVC055 34 28     79% 29   30.17   0    
Nov 16 22:51 WNW 8 10 Cloudy OVC015 34 29     82% 27   30.15 30.16      
Nov 16 21:51 WSW 6 10 Cloudy OVC016 35 29     78% 30   30.13 30.14      
Nov 16 20:51 W 6 10 Cloudy OVC017 35 29     78% 30   30.09 30.11      
Nov 16 19:51 W 7 10 Cloudy OVC018 36 29     75% 30   30.08 30.09      
Nov 16 18:51 WNW 6 10 Cloudy OVC018 36 29     75% 31   30.06 30.08      
Nov 16 17:51 W 9 10 Cloudy OVC018 37 30     76% 30   30.05 30.07      
Nov 16 16:51 W 10 10 Cloudy OVC019 37 30     76% 30   30.03 30.05      
Nov 16 15:51 W 11 10 Cloudy OVC019 38 31     76% 30   30.02 30.03      
Nov 16 14:51 W 9 10 Cloudy OVC024 39 32     76% 33   30 30.02      
Nov 16 13:51 W 14 10 Cloudy OVC025 40 30     67% 32   29.98 30      
Nov 16 12:51 W 9 10 Cloudy OVC025 40 31     70% 34   29.97 29.98      
Nov 16 12:42 W 9 10 Clear   40 31     70% 34   29.96        
Nov 16 11:51 WNW 13 10 Clear   40 31     70% 32   29.95 29.97      
Nov 16 10:51 NW 15 10 Cloudy OVC022 39 31     72% 31   29.94 29.96      
Nov 16 09:51 WNW 15 10 Cloudy OVC020 39 33     79% 31   29.92 29.94      
Nov 16 09:10 W 10 10 Cloudy BKN022 OVC041 39 33     79% 32   29.9        
Nov 16 08:51 W 9 10 Mostly Cloudy SCT022 BKN041 38 33     82% 31   29.89 29.91      
Nov 16 08:46 W 10 10 Cloudy SCT022 OVC041 39 34     81% 33   29.89        
Nov 16 07:51 W 7 9 Cloudy BKN020 OVC036 37 32     82% 32   29.87 29.89      
Nov 16 07:14 W 7 9 Cloudy BKN017 BKN026 OVC043 35 31     85% 29   29.84        
Nov 16 07:05 W 9 9 Cloudy FEW017 BKN032 OVC043 35 30     82% 28   29.84        
Nov 16 06:51 W 8 10 Cloudy BKN026 OVC039 34 30     85% 27   29.83 29.85      
Nov 16 06:38 WSW 8 10 Clear   34 30     85% 27   29.83        
Nov 16 05:51 WSW 11 9 Clear   33 29     85% 24   29.81 29.83      
Nov 16 05:49 WSW 8 9 Clear   34 28     80% 27   29.81        
Nov 16 05:17 WSW 9 9 Cloudy BKN014 OVC025 31 27     85% 23   29.8        
Nov 16 04:51 WSW 9 10 Cloudy FEW015 BKN023 OVC028 30 26     85% 22   29.78 29.8      
Nov 16 04:24 SW 8 10 Cloudy BKN023 BKN034 OVC060 30 25     81% 22   29.78        
Nov 16 03:51 SW 10 10 Cloudy FEW045 OVC060 30 24     78% 21   29.78 29.8      
Nov 16 02:51 SSW 11 10 Cloudy FEW045 OVC065 30 24     78% 21   29.78 29.8      
Nov 16 01:51 SSW 13 9 Partly Cloudy SCT015 SCT110 29 24     82% 19   29.78 29.8      
Nov 16 00:51 S 7 7 Mostly Cloudy BKN110 29 25     85% 22   29.81 29.83      
Nov 15 23:51 SSW 11 6 Fog/Mist FEW010 SCT110 29 26     89% 19   29.83 29.85      
Nov 15 22:51 SSW 10 6 Fog/Mist FEW010 FEW040 29 26     89% 20   29.86 29.88      
Nov 15 21:51 SW 9 5 Fog/Mist FEW010 30 26     85% 22   29.88 29.9      
Nov 15 21:25 SSW 10 6 Fog/Mist SCT010 30 27     88% 21   29.89        
Nov 15 20:51 SW 10 6 Fog/Mist OVC010 31 27     85% 22   29.91 29.93      
Nov 15 19:51 SW 7 5 Fog/Mist BKN010 BKN038 32 28     85% 26   29.9 29.92      
Nov 15 18:51 SW 8 5 Fog/Mist OVC012 32 29     88% 25   29.91 29.93      
Nov 15 18:35 SW 7 5 Fog/Mist BKN012 BKN033 OVC060 32 29     88% 26   29.91        
Nov 15 17:51 SW 6 3 Fog/Mist FEW006 BKN010 OVC014 32 30     92% 26   29.92 29.94 0   0
Nov 15 17:42 SSW 7 3 Light Snow and Fog/Mist FEW007 OVC012 32 30     92% 26   29.92   0    
Nov 15 17:36 SW 7 2.5 Light Snow and Fog/Mist SCT008 OVC012 32 30     92% 26   29.92   0    
Nov 15 17:31 SW 6 1.75 Light Snow and Fog/Mist SCT008 OVC010 32 30     92% 26   29.92   0    
Nov 15 17:20 SW 7 1.25 Light Snow and Fog/Mist SCT008 OVC010 32 30     92% 26   29.92   0    
Nov 15 17:15 WSW 6 2 and Fog/Mist SCT008 OVC010 33 30     88% 28   29.93   0    
Nov 15 16:51 SW 9 3 Light Drizzle and Fog/Mist SCT008 OVC010 33 30     88% 25   29.93 29.95 0    
Nov 15 16:47 WSW 9 3 Light Drizzle and Fog/Mist OVC011 34 30     86% 26   29.93   0    
Nov 15 15:51 SSW 7 5 Light Drizzle and Fog/Mist OVC011 33 30     88% 27   29.93 29.95 0    
Nov 15 15:27 SW 6 3 Light Drizzle and Fog/Mist BKN010 OVC014 34 31     88% 29   29.93   0    
Nov 15 14:51 WSW 6 2.5 Light Drizzle and Fog/Mist SCT007 OVC010 34 31     88% 29   29.93 29.96 0 0  
Nov 15 14:37 WSW 8 2.5 Light Drizzle and Fog/Mist OVC009 34 31     88% 27   29.93   0    
Nov 15 14:13 SSW 6 4 Fog/Mist OVC009 34 31     88% 29   29.93        
Nov 15 13:51 SW 7 5 Fog/Mist OVC009 34 31     88% 28   29.95 29.97      
Nov 15 12:51 SW 6 5 Fog/Mist OVC007 34 31     88% 29   29.97 29.99      
Nov 15 12:47 WSW 6 5 Fog/Mist OVC008 34 30     86% 29   29.97        
Nov 15 11:51 Calm 3 Fog/Mist OVC009 34 31     88%     30.01 30.03 0   0
Nov 15 11:23 Calm 3 Fog/Mist BKN007 OVC012 34 31     88%     30.02   0    
Nov 15 11:01 Calm 2 Light Snow and Fog/Mist BKN008 OVC014 33 31     92%     30.04   0    
Nov 15 10:51 Calm 2 Light Snow and Fog/Mist SCT006 BKN010 OVC015 33 31     92%     30.05 30.07 0    
Nov 15 10:42 Calm 2 Light Snow and Fog/Mist BKN008 OVC015 33 32     96%     30.06   0    
Nov 15 10:20 Calm 0.5 Snow and Fog BKN008 OVC014 33 32     96%     30.06   0    
Nov 15 09:51 E 7 0.75 Light Snow and Fog/Mist BKN013 BKN019 OVC024 33 30     88% 27   30.08 30.1 0    
Nov 15 09:43 E 6 0.75 Light Snow and Fog/Mist SCT013 BKN019 OVC028 33 30     88% 28   30.08   0    
Nov 15 09:28 E 7 1 Light Snow SCT019 BKN028 OVC034 34 28     79% 28   30.08   0    
Nov 15 09:16 E 5 2 Light Snow BKN029 OVC034 34 28     79% 30   30.08   0    
Nov 15 09:02 5 6 Light Snow SCT027 OVC034 34 28     79% 30   30.08   0    
Nov 15 08:50 E 3 3 Light Snow OVC032 33 28     82% 30   30.09 30.11 0 0  
Nov 15 08:49 E 3 3 Light Snow OVC032 34 28     80% 31   30.09   0    
Nov 15 08:35 E 6 1.75 Light Snow SCT025 OVC038 33 27     78% 28   30.09   0    
Nov 15 08:15 ENE 9 4 Light Snow FEW025 OVC042 33 26     75% 25   30.1   0    
Nov 15 07:51 ENE 6 10 Cloudy FEW025 SCT040 OVC065 34 25     69% 29   30.12 30.14      
Nov 15 06:51 E 5 10 Cloudy FEW025 OVC095 32 24     72% 27   30.15 30.17      
Nov 15 05:51 Calm 10 Cloudy FEW075 OVC110 31 25     78%     30.17 30.19      
Nov 15 04:51 Calm 10 Cloudy BKN110 OVC200 30 25     81%     30.19 30.21      
Nov 15 03:51 Calm 10 Cloudy BKN120 OVC200 29 24     82%     30.2 30.22      
Nov 15 02:51 N 5 10 Mostly Cloudy FEW100 BKN200 BKN250 27 23     85% 21   30.22 30.24      
Nov 15 01:51 Calm 10 Mostly Cloudy FEW100 BKN200 BKN250 26 23     88%     30.26 30.28      
Nov 15 00:51 Calm 10 Mostly Cloudy FEW020 SCT200 BKN250 27 22     81%     30.29 30.31      
Nov 14 23:51 S 3 10 Partly Cloudy FEW022 SCT250 27 23     85% 23   30.32 30.35      
Nov 14 22:51 Calm 10 Mostly Clear FEW022 FEW250 29 23     78%     30.34 30.37      
Nov 14 21:51 E 3 10 Partly Cloudy SCT022 31 24     75% 28   30.37 30.39      
Nov 14 21:47 Calm 10 Partly Cloudy SCT022 30 23     74%     30.37        
Nov 14 21:05 Calm 10 Mostly Cloudy BKN022 29 23     78%     30.4        
Nov 14 20:51 Calm 10 Partly Cloudy SCT025 30 22     71%     30.4 30.42      
Nov 14 19:51 E 3 10 Mostly Clear FEW020 29 22     75% 25   30.41 30.44      
Nov 14 18:51 E 9 10 Clear CLR 31 23     72% 23   30.44 30.47      
Nov 14 17:51 ENE 9 10 Mostly Clear FEW030 30 22     71% 22   30.44 30.47      
Nov 14 16:51 E 9 10 Mostly Clear FEW030 FEW200 31 22     69% 23   30.46 30.49      
Nov 14 15:51 NNE 9 10 Mostly Clear FEW030 FEW200 34 20     56% 27   30.47 30.5      
Nov 14 14:51 N 3 10 Mostly Clear FEW030 FEW250 36 20     52% 33   30.48 30.5      
Nov 14 13:51 Calm 10 Mostly Clear FEW028 FEW250 35 19     52%     30.49 30.52      
Nov 14 11:51 Calm 10 Mostly Clear FEW022 30 17     58%     30.57 30.6      
Nov 14 10:51 Calm 10 Partly Cloudy SCT022 29 16     58%     30.6 30.63      
Nov 14 09:51 7 10 Mostly Clear FEW028 27 12     53% 19   30.58 30.61      
Nov 14 08:51 NW 6 10 Mostly Clear FEW028 24 9     52% 17   30.58 30.61      
Nov 14 07:51 N 9 10 Mostly Clear FEW027 21 9     59% 11   30.56 30.59      
Nov 14 06:51 N 3 10 Mostly Clear FEW025 18 8     65% 13   30.55 30.58      
Nov 14 05:51 N 7 10 Clear CLR 17 9     70% 8   30.53 30.56      
Nov 14 04:51 N 8 10 Clear CLR 18 10     71% 8   30.52 30.55      
Nov 14 03:51 N 8 10 Clear CLR 18 10     71% 8   30.51 30.54      
Nov 14 02:51 NW 5 10 Clear CLR 19 11     70% 12   30.52 30.55      
Nov 14 01:51 WNW 6 10 Clear CLR 20 11     68% 12   30.51 30.54      
Nov 14 00:51 W 6 10 Clear CLR 20 11     68% 12   30.5 30.53      
Nov 13 23:51 WSW 6 10 Clear CLR 21 11     65% 13   30.5 30.53      
Nov 13 22:51 W 5 10 Clear CLR 22 11     62% 16   30.49 30.52      
Nov 13 21:51 WSW 5 10 Clear CLR 22 12     65% 16   30.48 30.51      
Nov 13 20:51 SW 5 10 Clear CLR 23 11     59% 17   30.47 30.5      
Nov 13 19:51 W 3 10 Clear CLR 24 11     57% 20   30.45 30.48      
Nov 13 18:51 W 6 10 Clear CLR 25 10     53% 18   30.44 30.47      
Nov 13 17:51 W 6 10 Mostly Clear FEW035 26 10     50% 19   30.42 30.45      
Nov 13 16:51 W 6 10 Mostly Clear FEW035 27 10     48% 20   30.42 30.45      
Nov 13 15:51 WNW 7 10 Mostly Clear FEW035 28 9     44% 21   30.41 30.44      
Nov 13 14:51 WNW 10 10 Mostly Clear FEW035 28 9     44% 19   30.4 30.43      
Nov 13 13:51 NW 8 10 Mostly Clear FEW035 28 9     44% 20   30.4 30.42      
Nov 13 12:51 NW 8 10 Mostly Clear FEW035 28 10     46% 20   30.41 30.44      
Nov 13 11:51 NNW 13 10 Mostly Clear FEW035 27 8     44% 16   30.43 30.45      
Nov 13 10:51 WNW 10 10 Mostly Clear FEW034 25 8     48% 15   30.43 30.46      
Nov 13 09:51 NNW 14 10 Partly Cloudy SCT034 24 8     50% 12   30.42 30.45      
Nov 13 08:51 NNW 15 10 Partly Cloudy SCT033 23 8     52% 10   30.41 30.44      
Nov 13 07:51 NW 11 10 Mostly Cloudy BKN032 20 8     59% 8   30.4 30.42      
Nov 13 06:51 NW 10 10 Mostly Cloudy BKN032 19 8     62% 7   30.38 30.41      
Nov 13 05:51 NW 13 10 Mostly Cloudy BKN033 BKN130 19 8     62% 6   30.37 30.4      
Nov 13 04:51 NNW 13 10 Cloudy BKN033 OVC130 20 10     65% 7   30.36 30.39      
Nov 13 03:51 NW 8 10 Partly Cloudy FEW035 SCT130 20 10     65% 10   30.35 30.37      
Nov 13 02:51 NW 15 10 Mostly Clear FEW035 FEW130 22 11     62% 9   30.34 30.37      
Nov 13 01:51 NW 13 10 Mostly Clear FEW035 FEW130 22 13     68% 10   30.34 30.37      
Nov 13 00:51 NW 10 10 Mostly Clear FEW130 23 13     65% 12   30.34 30.36      
Nov 12 23:51 NNW 13 10 Partly Cloudy SCT130 24 13     62% 12   30.35 30.37      
Nov 12 22:51 NW 10 10 Cloudy SCT034 OVC130 25 13     60% 15   30.35 30.37      
Nov 12 21:51 NW 11 10 Cloudy FEW027 BKN034 OVC130 26 15     63% 16   30.36 30.38      
Nov 12 20:51 N 15 10 Cloudy SCT027 BKN036 OVC110 27 17     66% 15   30.34 30.36      
Nov 12 20:24 NNW 9 10 Cloudy SCT028 OVC035 28 17     63% 19   30.33        
Nov 12 19:51 NW 14 10 Cloudy OVC028 28 18     65% 17   30.33 30.35      
Nov 12 18:51 NNW 13 10 Cloudy OVC028 29 19     66% 19   30.33 30.35      
Nov 12 17:51 NNW 11 10 Cloudy BKN026 OVC032 29 20     69% 19   30.33 30.35      
Nov 12 17:24 NNW 10 10 Cloudy BKN028 OVC035 30 20     66% 21   30.32        
Nov 12 16:51 NNW 10 10 Mostly Cloudy SCT028 BKN035 BKN110 30 20     66% 21   30.31 30.33      
Nov 12 16:24 NNW 10 10 Cloudy OVC028 31 20     63% 22   30.31        
Nov 12 15:51 NW 8 10 Cloudy OVC031 31 21     66% 23   30.32 30.34      
Nov 12 14:51 NW 9 10 Cloudy OVC031 32 21     64% 24   30.32 30.34      
Nov 12 13:51 NW 9 10 Cloudy OVC028 32 21     64% 24   30.32 30.34      
Nov 12 13:21 NNW 10 10 Cloudy OVC028 33 22     63% 25   30.32        
Nov 12 12:51 N 11 10 Cloudy OVC028 33 22     63% 24   30.32 30.34      
Nov 12 11:51 N 6 10 Cloudy BKN029 OVC120 34 22     61% 29   30.34 30.36      
Nov 12 10:51 N 9 10 Cloudy BKN028 BKN110 OVC250 33 22     63% 25   30.34 30.36      
Nov 12 10:29 N 10 10 Cloudy BKN028 BKN110 OVC250 34 22     61% 26   30.34        
Nov 12 09:51 N 10 10 Cloudy FEW025 SCT095 BKN140 OVC250 33 22     63% 25   30.34 30.36      
Nov 12 08:51 N 15 10 Mostly Cloudy FEW100 SCT170 BKN250 32 22     66% 22   30.31 30.33      
Nov 12 07:51 N 15 10 Cloudy FEW025 OVC100 31 24     75% 20   30.31 30.33      
Nov 12 06:51 N 9 10 Cloudy FEW025 BKN100 OVC250 31 23     72% 23   30.32 30.34      
Nov 12 05:51 NNW 7 10 Partly Cloudy SCT250 30 22     71% 23   30.29 30.31      
Nov 12 04:51 NNW 5 10 Mostly Cloudy FEW170 BKN250 30 23     75% 25   30.28 30.3      
Nov 12 03:51 NNW 6 10 Mostly Cloudy FEW045 SCT170 BKN250 31 25     78% 25   30.29 30.3      
Nov 12 02:51 NW 6 10 Mostly Cloudy FEW045 SCT170 BKN250 33 26     75% 28   30.29 30.31      
Nov 12 01:51 W 3 10 Mostly Cloudy SCT170 BKN250 33 26     75% 30   30.29 30.31      
Nov 12 00:51 W 3 10 Cloudy BKN170 OVC250 33 26     75% 30   30.28 30.29      
Nov 11 23:51 W 5 10 Cloudy BKN170 OVC250 34 26     72% 30   30.27 30.29      
Nov 11 22:51 WSW 5 10 Mostly Cloudy SCT180 BKN250 34 26     72% 30   30.26 30.28      
Nov 11 21:51 WSW 5 10 Mostly Cloudy SCT180 BKN250 35 25     66% 31   30.25 30.27      
Nov 11 20:51 WSW 3 10 Mostly Cloudy SCT180 BKN250 34 26     72% 31   30.24 30.27      
Nov 11 19:51 SW 3 10 Mostly Cloudy SCT180 BKN250 36 25     64% 33   30.25 30.27      
Nov 11 18:51 W 3 10 Cloudy BKN180 OVC250 38 25     59% 36   30.24 30.26      
Nov 11 17:51 W 5 10 Cloudy BKN200 OVC250 38 24     57% 34   30.22 30.24      
Nov 11 16:51 W 5 10 Mostly Cloudy BKN200 BKN250 39 24     55% 36   30.21 30.23      
Nov 11 15:51 SW 6 10 Mostly Cloudy FEW100 SCT200 BKN250 40 24     53% 36   30.2 30.22      
Nov 11 14:51 WSW 7 10 Mostly Cloudy FEW065 FEW200 BKN250 40 23     50% 35   30.19 30.21      
Nov 11 13:51 SSW 13 10 Mostly Cloudy FEW065 BKN250 41 23     48% 34   30.19 30.21      
Nov 11 12:51 SSW 11 10 Mostly Cloudy FEW065 BKN250 40 22     48% 33   30.2 30.22      
Nov 11 11:51 SSW 10 10 Mostly Cloudy BKN065 BKN080 BKN250 37 22     54% 30   30.22 30.24      
Nov 11 10:51 SSW 10 10 Mostly Cloudy FEW060 FEW080 BKN250 36 21     54% 29   30.23 30.24      
Nov 11 09:51 SW 9 10 Mostly Cloudy FEW060 FEW110 BKN250 33 19     56% 25   30.23 30.26      
Nov 11 08:51 SW 13 10 Partly Cloudy FEW060 FEW110 SCT250 31 18     58% 21   30.25 30.27      
Nov 11 07:51 SSW 11 10 Mostly Cloudy BKN060 BKN110 BKN250 30 18     60% 21   30.25 30.27      
Nov 11 06:51 SSW 10 10 Cloudy BKN060 OVC110 30 19     63% 21   30.24 30.27      
Nov 11 05:51 SSW 8 10 Cloudy OVC055 30 19     63% 22   30.24 30.27      
Nov 11 04:51 S 13 10 Cloudy OVC075 29 19     66% 19   30.25 30.27      
Nov 11 03:51 S 10 10 Cloudy BKN075 OVC100 29 19     66% 20   30.25 30.27      
Nov 11 02:51 S 8 10 Mostly Cloudy SCT070 BKN100 29 19     66% 21   30.27 30.29      
Nov 11 01:51 S 9 10 Cloudy OVC075 29 20     69% 20   30.28 30.31      
Nov 11 00:51 S 8 10 Mostly Cloudy SCT070 BKN085 29 20     69% 21   30.29 30.31      
Nov 10 23:51 S 6 10 Cloudy SCT075 BKN090 OVC250 29 20     69% 23   30.29 30.31      
Nov 10 22:51 S 9 10 Cloudy BKN075 OVC110 30 20     66% 22   30.29 30.32      
Nov 10 21:51 S 8 10 Cloudy FEW080 OVC110 30 19     63% 22   30.31 30.33      
Nov 10 20:51 S 6 10 Cloudy OVC075 30 18     60% 24   30.31 30.34      
Nov 10 19:51 SSW 6 10 Cloudy BKN070 OVC110 30 17     58% 24   30.31 30.34      
Nov 10 18:51 SW 6 10 Cloudy FEW085 BKN100 OVC200 30 17     58% 24   30.31 30.34      
Nov 10 17:51 SSW 6 10 Mostly Cloudy SCT095 BKN150 BKN200 30 16     55% 24   30.31 30.34      
Nov 10 16:51 SW 6 10 Mostly Cloudy FEW100 SCT150 BKN200 31 14     49% 25   30.31 30.34      
Nov 10 15:51 SSW 7 10 Mostly Cloudy BKN150 BKN200 BKN250 32 15     49% 26   30.32 30.35      
Nov 10 14:51 SSW 3 10 Mostly Cloudy SCT150 BKN200 BKN250 32 14     47% 29   30.32 30.34      
Nov 10 13:51 WSW 6 10 Partly Cloudy FEW025 FEW200 SCT250 32 15     49% 26   30.34 30.37      
Nov 10 12:51 SW 9 10 Mostly Clear FEW025 FEW250 31 16     53% 23   30.35 30.38      
Nov 10 11:51 W 9 10 Mostly Clear FEW025 FEW250 30 15     53% 22   30.37 30.4      
Nov 10 10:51 W 9 10 Mostly Clear FEW030 FEW250 28 15     58% 19   30.38 30.4      
Nov 10 09:51 W 11 10 Mostly Clear FEW030 FEW250 25 14     63% 14   30.37 30.4      
Nov 10 08:51 W 16 10 Mostly Clear FEW028 FEW250 23 13     65% 10   30.35 30.38      
Nov 10 07:51 W 15 10 Mostly Clear FEW017 FEW028 21 13     70% 8   30.34 30.36      
Nov 10 06:51 W 17 10 Mostly Clear FEW026 20 12     71% 5   30.3 30.33      
Nov 10 05:51 W 17 10 Mostly Clear FEW026 21 12     68% 7   30.27 30.29      
Nov 10 04:51 W 18 10 Mostly Clear FEW028 21 12     68% 6   30.25 30.28      
Nov 10 03:51 W 16 10 Mostly Clear FEW028 22 13     68% 8   30.22 30.25      
Nov 10 02:51 W 21 10 Mostly Cloudy and Windy SCT027 BKN085 23 14     68% 8   30.2 30.23      
Nov 10 02:36 W 18 10 Mostly Cloudy SCT027 BKN085 22 13     68% 7   30.19        
Nov 10 01:51 W 18 10 Mostly Cloudy BKN027 BKN085 22 13     68% 7   30.18 30.21      
Nov 10 01:41 W 15 10 Mostly Cloudy BKN027 BKN085 22 13     68% 9   30.18        
Nov 10 00:51 W 15 10 Partly Cloudy SCT024 SCT046 21 12     68% 8   30.17 30.19      
May 14 22:19 SSE 13 4 Thunderstorms and Heavy Rain and Fog/Mist FEW011 BKN036 OVC100 64 61     90%     29.84   0    
May 14 06:22 W 7 2 Thunderstorms and Heavy Rain and Fog/Mist BKN015 OVC020 55 52     89%     30.01   0    
May 13 20:51 Calm 10 Mostly Cloudy FEW120 FEW150 SCT200 BKN250 55 49     80%     29.97 29.97      
May 13 16:51 ESE 8 10 Cloudy FEW023 SCT055 BKN200 OVC250 64 53     67%     29.98 29.98      
May 13 02:35 NNE 11 5 Thunderstorms and Rain FEW006 FEW020 OVC027 48 46     93% 43   30.02   0    
Notice The following observation data may not be complete
May 13 01:39   10 Thunderstorms BKN008 BKN014 OVC020          %              
May 12 14:10 NNE 14 3 Thunderstorms and Heavy Rain BKN012 OVC029 47 42     83% 41   30.13   0    
May 11 23:51 NE 11 10 Cloudy SCT075 OVC110 47 42     83% 42   29.97 29.98      
May 11 14:51 ENE 10 10 Light Rain OVC050 51 46     83%     29.97 29.97 0    
Jun 11 22:51 SSW 17 10 Clear CLR 84 58     41%   83 29.91 29.89      
Jun 11 14:51 SSW 13 10 Clear   91 61     37%   91 29.91 29.89      
Jun 10 09:51 SW 13 10 Mostly Cloudy BKN250 77 57     50%   77 29.87 29.86      
Jun 09 22:51 E 6 10 Mostly Clear FEW075 67 55     66%     29.83 29.81      
Jun 09 15:51 ENE 13 10 Clear   83 57     41%   82 29.76 29.75      
Jun 08 07:51 SW 5 10 Clear   67 46     47%     30.05 30.03